Regional Weather Roundup
Issued by NWS Goodland, KS

Home | Current Version | Previous Version | Text Only | Print | Product List | Glossary On
Versions: 1 2 3 4 5 6 7 8 9 10 11 12 13 14 15 16 17 18 19 20 21 22 23 24 25 26 27 28 29 30 31 32 33 34 35 36 37 38 39 40 41 42 43 44 45 46 47 48 49 50
000
ASUS43 KGLD 291808
RWRGLD

GOODLAND FORECAST AREA HOURLY WEATHER ROUNDUP
NATIONAL WEATHER SERVICE GOODLAND KS
1200 PM MDT TUE JUL 29 2014

...OFFICIAL OBSERVATIONS...

CITY           SKY/WX    TMP DP  RH WIND       PRES   REMARKS
GOODLAND KS    MOSUNNY   82  63  52 SE9G21    30.20F
HILL CITY KS     N/A     84  58  40 MISG      30.18F
IMPERIAL NEB   PTSUNNY   76  60  57 E8        30.22F
MCCOOK NEB     MOSUNNY   81  59  47 E15       30.19F
AKRON CO       SUNNY     81  56  42 SE12G22   30.22F
BURLINGTON CO  MOSUNNY   80  63  55 SE10G21   30.21F
LIMON CO       MOSUNNY   79  53  40 E9        30.23F
$$

...UNOFFICIAL OBSERVATIONS...

CITY           SKY/WX    TMP DP  RH WIND       PRES   REMARKS
COLBY KS       CLOUDY    82  66  57 SE12      30.20F
GOVE KS          N/A     83  32  16 MISG        N/A
LENORA KS        N/A     80  32  17 MISG        N/A
NORTON KS      MOSUNNY   82  50  32 E8G17     30.18F
OBERLIN KS     FAIR      84  57  39 SE12      30.18F
ST FRANCIS KS  MOSUNNY   82  57  42 S12G20    30.18F
WAKEENEY KS      N/A     85  51  30 MISG        N/A
TRENTON NEB      N/A     80  32  17 E9          N/A
KIT CARSON CO    N/A     80  63  56 N5G12       N/A
WRAY CO          N/A     84  61  45 E12G18    30.19F
YUMA CO          N/A     78  62  58 SE14        N/A
$$


USA.gov is the U.S. government's official web portal to all federal, state and local government web resources and services.